Weather Service Report


173 
ASUS43 KMPX 281810
RWRMN 
WEATHER ROUNDUP FOR MINNESOTA
NATIONAL WEATHER SERVICE TWIN CITIES/CHANHASSEN MN
100 PM CDT THU AUG 28 2014


NOTE: "FAIR" INDICATES FEW OR NO CLOUDS BELOW 12,000 FEET WITH NO
SIGNIFICANT WEATHER AND/OR OBSTRUCTIONS TO VISIBILITY. N/A MEANS
CURRENT SKY AND/OR WEATHER CONDITIONS ARE NOT AVAILABLE.

MNZ060>063-068>070-281900-
   Twin Cities Metro   
  
CITY           SKY/WX    TMP DP  RH WIND       PRES   REMARKS
TWIN CITIES    CLOUDY    72  61  68 SE10      30.03F                  
6HR MIN TEMP:  62; 6HR MAX TEMP:  72;                                

ST PAUL        CLOUDY    72  61  68 SE8       30.04F                  
CRYSTAL        CLOUDY    73  60  63 E8        30.02F                  
LAKEVILLE      DRIZZLE   64  63  94 SE7       30.04S                  
EDEN PRAIRIE   CLOUDY    71  60  68 SE10      30.02F                  
6HR MIN TEMP:  62; 6HR MAX TEMP:  72;                                

SOUTH ST PAUL  CLOUDY    71  61  69 SE5       30.03F                  
LAKE ELMO      FAIR      72  63  73 SE8       30.06F                  
$$
MNZ001>005-007-008-013>017-022>024-027-028-281900-
   Northwest Minnesota   
  
CITY           SKY/WX    TMP DP  RH WIND       PRES   REMARKS
BEMIDJI        PTSUNNY   67  60  76 S12       30.02F                  
HALLOCK        PTSUNNY   73  66  78 S12       29.91F                  
ROSEAU         PTSUNNY   70  63  78 S13       29.96F                  
WARROAD        RAIN      70  64  83 S6G16     29.98S                  
THIEF RVR FALL PTSUNNY   72  64  78 S12       29.96F                  
CROOKSTON      PTSUNNY   73  64  73 S9        29.95F                  
FOSSTON        PTSUNNY   70  61  73 S14       29.99F                  
DETROIT LAKES  CLOUDY    70  61  73 S12       30.00F                  
MOORHEAD       CLOUDY    70  64  83 S10       29.97F                  
PARK RAPIDS    CLOUDY    70  59  68 S16       30.02F                  
MAHNOMEN       CLOUDY    70  63  78 S10G16    29.98F                  
$$
MNZ006-009>011-018-025>026-281900-
   North Central Minnesota   
  
CITY           SKY/WX    TMP DP  RH WIND       PRES   REMARKS
BAUDETTE       CLOUDY    72  59  63 S14G21    29.98F                  
FLAG ISLAND    MOSUNNY   70  63  78 S15       29.96S                  
INTL FALLS     CLOUDY    72  58  61 S5G20     30.02F                  
6HR MIN TEMP:  46; 6HR MAX TEMP:  73;                                

WASKISH        CLOUDY    70  61  73 SE5       30.01F                  
BIG FORK       MOSUNNY   72  61  68 S8        30.05S                  
LONGVILLE      CLOUDY    68  63  83 CALM      30.03F                  
GRAND RAPIDS   CLOUDY    70  57  64 S9        30.05F                  
CRANE LAKE     MOSUNNY   70  55  60 S3        30.06F                  
ORR            PTSUNNY   72  54  53 S8        30.03F                  
COOK           MOSUNNY   72  55  56 S5        30.06F                  
WALKER         CLOUDY    67  59  77 SE6       30.02F                  
$$
MNZ012-019>021-037-281900-
   Northeast Minnesota   
  
CITY           SKY/WX    TMP DP  RH WIND       PRES   REMARKS
DULUTH         MOSUNNY   71  55  56 VRB5      30.08F                  
6HR MIN TEMP:  53; 6HR MAX TEMP:  71;                                

ELY            PTSUNNY   70  54  56 S5        30.07F                  
HIBBING        PTSUNNY   73  55  53 S9        30.06F                  
EVELETH        FAIR      72  54  53 S3        30.08F                  
DULUTH HARBOR  MOSUNNY   64  57  77 NE8       30.08F                  
TWO HARBORS    MOSUNNY   66  54  63 S7        30.07F                  
SILVER BAY     SUNNY     66  57  72 S8        30.08F                  
GRAND MARAIS     N/A     63  57  81 VRB3      30.10F                  
G MARAIS ARPRT SUNNY     66  54  63 S8        30.12F                  
$$
MNZ029>031-032-039>041-046>048-054>057-064-281900-
   West Central Minnesota   
  
CITY           SKY/WX    TMP DP  RH WIND       PRES   REMARKS
FERGUS FALLS   CLOUDY    70  59  68 SE12      29.97F                  
WHEATON        LGT RAIN  64  63  94 SE8       29.98F                  
MORRIS         CLOUDY    66  64  94 SE9       29.97F                  
ALEXANDRIA     CLOUDY    69  62  78 SE13      30.02F                  
ELBOW LAKE     DRIZZLE   67  62  84 SE13      29.98F                  
WADENA         CLOUDY    70  61  73 S9        30.01F                  
GLENWOOD       CLOUDY    70  63  78 SE7       30.01F                  
APPLETON       LGT RAIN  68  63  83 SE8       29.97F                  
BENSON         LGT RAIN  66  63  88 S12       29.99F                  
ORTONVILLE     DRIZZLE   66  63  88 SE12      29.96F                  
MADISON        RAIN      68  66  94 SE7       29.96F                  
WILLMAR        DRIZZLE   68  63  83 SE12      30.01F                  
$$
MNZ033>034-036-042>043-049>051-058-059-281900-
   Central Minnesota     
  
CITY           SKY/WX    TMP DP  RH WIND       PRES   REMARKS
ST CLOUD       CLOUDY    75  60  59 SE14      30.02F                  
6HR MIN TEMP:  59; 6HR MAX TEMP:  75;                                

SAUK CENTRE    MOCLDY    71  62  72 SE10      30.01F                  
PAYNESVILLE    CLOUDY    68  60  74 E13       30.02F                  
AITKIN         PTSUNNY   73  61  64 SE12      30.03F                  
PINE RIVER     CLOUDY    70  61  73 SE8       30.06F                  
BRAINERD       CLOUDY    70  59  68 S13       30.03F                  
STAPLES        CLOUDY    72  59  64 SE9       30.02F                  
LONG PRAIRIE   FAIR      70  61  73 SE7       30.02F                  
LITTLE FALLS   CLOUDY    70  59  68 SE8       30.03F                  
LITCHFIELD     CLOUDY    72  63  73 SE12      30.02F                  
BUFFALO        CLOUDY    71  60  68 E7        30.03F                  
MAPLE LAKE     CLOUDY    72  64  75 SE6       30.03F                  
$$
MNZ037-044-045-052-053-281900-
   East Central Minnesota   
  
CITY           SKY/WX    TMP DP  RH WIND       PRES   REMARKS
PRINCETON      PTSUNNY   73  61  64 SE10G16   30.04F                  
MORA           PTSUNNY   70  57  64 SE8       30.07F                  
CAMBRIDGE      PTSUNNY   75  61  60 SE8       30.02F                  
RUSH CITY      PTSUNNY   73  60  63 S8        30.06F                  
MOOSE LAKE     MOSUNNY   72  55  56 S5        30.04F                  
HINCKLEY       FAIR      72  59  64 S9        30.06F                  
CLOQUET        MOSUNNY   70  54  56 E6        30.07F                  
MCGREGOR       PTSUNNY   72  59  64 S8        30.06F                  
$$
MNZ071>073-080-081-089-090-097-098-281900-
   Southwest Minnesota   
  
CITY           SKY/WX    TMP DP  RH WIND       PRES   REMARKS
MONTEVIDEO     LGT RAIN  66  66 100 SE12      29.98F                  
GRANITE FALLS  LGT RAIN  66  64  93 E9        29.99F                  
CANBY          RAIN      66  65  95 E7        29.97F                  
MARSHALL       CLOUDY    66  63  88 SE13      29.95F                  
REDWOOD FALLS  LGT RAIN  66  64  93 E9        29.98F FOG              
OLIVIA         CLOUDY    70  63  78 SE12      29.99F                  
PIPESTONE      DRIZZLE   66  64  94 SE9       29.95F                  
WINDOM         CLOUDY    70  64  83 SE10      29.97F                  
WORTHINGTON    CLOUDY    68  66  94 SE13      29.97F                  
JACKSON        CLOUDY    70  66  88 SE16      29.98F                  
TRACY          LGT RAIN  66  65  96 SE6       29.97F                  
SLAYTON        CLOUDY    65  65 100 CALM      29.98F                  
$$
MNZ065>067-074>077-082>085-091>093-281900-
   South Central Minnesota  
  
CITY           SKY/WX    TMP DP  RH WIND       PRES   REMARKS
MANKATO        CLOUDY    66  61  82 SE14      30.00F                  
NEW ULM        LGT RAIN  64  64 100 E9        29.99F                  
ST JAMES       CLOUDY    70  66  88 E9        29.99F                  
FAIRMONT       CLOUDY    66  63  88 SE14      29.98F                  
GLENCOE        DRIZZLE   67  61  80 SE12      30.02F                  
FARIBAULT      DRIZZLE   70  61  73 E8        30.03F                  
OWATONNA       LGT RAIN  66  64  94 SE8       30.02F                  
WASECA         RAIN      63  59  88 E10       30.03F                  
ALBERT LEA     RAIN      64  64 100 SE9       30.02F                  
$$
MNZ078>079-086>088-094>096-281900-
   Southeast Minnesota   
  
CITY           SKY/WX    TMP DP  RH WIND       PRES   REMARKS
ROCHESTER      LGT RAIN  65  62  90 SE9       30.06F FOG              
6HR MIN TEMP:  59; 6HR MAX TEMP:  65; 6HR PCP:  0.09;                

RED WING       CLOUDY    72  63  73 SE7       30.04F                  
STANTON        DRIZZLE   67  63  85 E3        30.02F                  
DODGE CENTER   LGT RAIN  64  63  94 SE9       30.05S                  
WINONA         LGT RAIN  70  64  83 SE8       30.06F                  
AUSTIN         CLOUDY    64  63  94 SE8       30.04S                  
PRESTON        LGT RAIN  63  64 100 CALM      30.07F                  
$$
ABBREVIATIONS USED IN REMARKS
   TC - TEMPERATURES IN CELSIUS
  WCI - WIND CHILL INDEX
   HX - HEAT INDEX
  VSB - VISIBILITY 
$$

Return to Home page


Western Regional Climate Center, wrcc@dri.edu